Location: Miles
(41.4492°N, 81.6087°W)
Time: 21:52:26
(UTC+00:00)

Courier 1B - Pass Details

Date: 15 September 2024
Orbit: 962 x 1208 km, 28.3° (Epoch: 06 October)

Event Time Altitude Azimuth Distance (km) Brightness Sun altitude
Rises 01:00:08 0° 257° (WSW) 4,086 11.8 -16.2°
Reaches altitude 10° 01:04:37 10° 234° (SW) 3,136 10.6 -17.0°
Maximum altitude 01:08:21 14° 205° (SSW) 2,833 10.0 -17.6°
Drops below altitude 10° 01:12:04 10° 176° (S) 3,129 9.9 -18.3°
Enters shadow 01:13:56 - 165° (SSE) 3,465 10.0 -18.6°
